Theta_e
333 332 332 332 331 331 329 327 328 328 328 327 328 327 326 327 327 327 329 328 328 330 328 329 330 331 329 327 328 329 330 329 330 328 331 333 334 333 337 339 340 340 340 341 343 344 343 341 342 342 343 342 341 340 340 338 338 337 336 337 338 338 339 339 338 337 337 337 335 334 334 333 332 334 333 332 334 335 337 338 337 337 336 336 336
331 330 331 330 329 329 328 327 325 325 324 325 326 324 324 324 323 323 324 323 325 327 326 326 326 328 328 327 326 326 328 326 326 326 329 332 334 331 332 335 336 337 337 339 340 342 342 341 341 341 342 342 342 339 340 338 338 338 338 338 339 338 336 337 337 335 334 336 334 333 334 335 335 334 334 334 335 335 336 339 338 338 337 336 336
329 327 327 326 327 328 326 326 324 325 325 323 325 324 324 322 321 321 322 321 322 323 324 324 325 325 328 326 325 327 326 327 325 325 326 329 331 332 329 329 331 332 332 332 334 335 337 339 341 341 341 341 342 342 341 338 339 338 338 338 339 338 335 335 336 335 335 336 336 336 335 335 335 334 335 335 336 336 336 336 338 338 337 336 335
328 327 327 326 326 325 326 325 324 324 325 326 325 325 323 321 321 322 322 323 321 322 323 321 323 324 325 326 326 324 323 325 324 324 325 328 328 330 331 327 326 327 328 329 329 330 331 332 334 335 337 339 339 341 341 340 339 339 338 339 341 338 335 336 335 333 334 336 336 336 336 335 335 335 335 335 336 336 336 337 338 338 337 336 335
328 328 327 325 325 326 324 325 325 325 325 326 324 324 323 320 322 322 321 322 322 323 322 323 321 324 324 326 326 325 323 324 325 325 323 325 327 327 330 330 328 327 326 327 327 327 328 327 328 330 331 333 334 335 335 337 338 339 339 340 339 339 337 335 336 337 337 337 336 336 336 335 335 335 335 335 336 336 336 336 337 337 337 337 336
327 327 326 325 326 325 324 323 324 324 324 325 321 321 322 322 322 322 322 322 320 323 322 322 320 324 325 324 325 325 323 324 323 323 323 324 325 326 326 327 326 328 328 327 326 326 327 327 327 327 328 329 331 331 333 334 335 335 336 338 340 339 338 335 336 337 337 337 337 337 336 336 336 335 335 335 335 335 335 336 337 337 337 337 336
326 326 324 325 323 322 322 322 323 325 324 323 323 322 323 322 321 322 324 322 319 322 322 323 324 324 324 325 324 324 325 323 323 323 322 325 325 324 325 324 324 326 326 326 328 326 325 326 326 325 326 327 328 329 331 332 335 336 337 336 336 339 339 338 338 338 337 336 336 336 337 337 337 336 336 336 336 335 335 335 336 337 337 337 337
325 324 324 323 321 321 321 324 324 324 324 324 324 322 323 323 323 323 321 320 320 320 323 323 323 322 324 324 324 324 323 322 322 321 322 324 323 324 324 324 324 323 323 323 326 327 322 323 323 324 324 324 326 326 328 330 335 337 339 339 337 336 338 339 338 338 338 337 336 336 336 337 337 337 336 335 335 335 335 336 335 336 336 337 337
325 324 323 323 322 321 322 324 325 324 322 322 322 322 322 322 323 323 322 320 319 318 321 323 324 324 325 325 324 325 323 322 322 321 320 321 322 322 323 323 323 320 323 324 324 324 322 320 320 320 323 323 324 324 325 327 332 336 338 339 339 336 335 338 338 338 338 337 336 336 336 337 336 336 337 336 335 334 335 336 336 336 336 337 337
324 323 323 322 322 321 323 324 324 324 323 322 321 322 323 323 322 323 322 320 318 319 321 322 321 322 324 322 324 324 322 322 322 322 320 319 321 321 322 323 322 321 322 324 323 323 324 326 324 323 322 321 323 324 324 325 326 329 332 336 338 338 336 335 338 339 338 337 337 337 337 337 336 336 336 336 336 335 336 336 336 336 336 335 335
323 323 323 320 321 322 324 324 323 322 323 322 321 322 324 324 324 322 322 320 318 319 320 320 319 320 319 321 322 322 324 321 322 320 320 321 320 319 319 323 321 320 323 322 322 323 324 324 323 323 323 321 320 320 322 323 322 323 326 329 333 334 335 336 336 339 339 338 337 337 337 337 337 336 336 337 337 336 336 336 336 335 335 336 335
321 322 323 323 321 322 324 324 323 322 322 322 321 321 323 323 324 321 321 321 320 319 319 320 319 319 320 321 321 319 319 319 319 318 320 320 320 321 320 319 322 322 321 321 323 321 323 323 323 321 323 323 322 320 320 320 320 320 321 323 328 330 331 334 335 337 339 339 338 338 338 338 338 337 336 336 336 337 336 336 336 335 334 336 336
321 322 323 321 322 322 323 322 322 323 322 322 323 323 324 324 323 323 321 320 319 320 319 320 317 316 321 319 321 320 320 318 317 318 317 318 320 318 319 320 320 320 321 322 321 322 322 322 322 323 322 321 323 326 323 320 318 320 321 321 322 325 328 330 332 333 337 339 338 338 338 338 339 338 337 336 337 336 337 336 336 336 335 335 334
322 323 324 322 322 321 321 321 322 323 323 323 323 323 323 323 323 320 320 318 318 318 320 318 315 313 313 313 317 318 321 320 318 317 317 318 319 319 320 317 318 320 322 321 321 320 319 321 322 322 322 322 321 320 321 322 322 322 321 322 322 322 323 326 328 330 331 333 336 336 338 338 338 338 337 337 337 337 336 336 335 337 336 335 335
321 321 321 322 323 323 323 323 324 324 323 322 323 322 323 323 323 320 319 319 318 320 321 321 314 314 316 313 312 311 318 319 319 318 318 318 318 318 318 318 317 319 321 320 320 319 319 320 320 321 322 322 321 320 320 320 321 321 321 320 321 321 321 322 324 326 328 330 332 334 336 338 338 337 337 337 336 337 336 335 335 335 336 335 334
321 320 320 322 324 323 323 324 324 325 324 322 322 322 323 322 323 322 322 319 317 318 320 322 319 315 309 309 311 311 308 312 313 315 319 317 316 317 317 317 317 318 320 316 317 318 320 319 319 320 321 320 320 320 320 318 319 322 321 318 319 319 320 321 322 323 324 326 329 330 332 335 335 334 335 337 336 336 336 336 336 335 334 334 335
322 321 321 322 323 324 324 324 323 325 324 322 322 322 322 322 323 323 322 320 316 318 321 322 321 321 315 310 308 307 307 309 310 313 316 313 315 314 316 316 317 316 316 315 316 317 317 316 318 319 318 317 317 316 318 318 318 319 318 319 318 317 318 320 321 322 323 323 325 327 329 330 331 332 333 334 335 336 337 336 335 335 334 333 334
321 322 322 323 324 324 325 324 323 323 323 323 322 321 322 322 322 322 321 321 318 316 315 319 320 319 319 316 315 309 307 309 309 305 313 314 314 314 315 315 315 314 314 314 314 314 315 316 315 311 312 313 314 315 315 315 316 316 318 318 320 320 321 320 320 321 322 323 322 323 326 328 329 330 331 331 332 333 334 336 336 336 335 335 335
323 322 323 323 323 324 324 323 323 322 323 322 322 322 321 321 322 321 319 318 318 313 314 313 315 316 314 315 315 314 312 309 305 307 304 308 312 311 311 313 313 311 311 313 313 312 314 310 308 309 311 312 312 313 315 316 316 317 317 320 322 322 322 323 323 322 321 322 323 322 322 324 326 328 329 329 331 332 334 335 336 336 336 336 335
323 322 322 322 323 323 323 324 322 322 321 321 322 322 321 321 321 321 319 317 316 313 312 313 310 310 312 312 312 312 311 311 310 307 304 302 303 307 309 308 307 308 311 309 308 311 307 306 307 308 308 309 312 312 314 314 315 316 319 319 320 320 320 321 322 323 324 323 322 322 322 322 323 324 325 327 328 329 332 334 335 336 336 336 336
323 323 323 323 323 323 323 323 324 323 322 322 321 320 319 318 317 316 316 314 314 314 312 310 311 309 308 309 308 307 306 307 306 306 302 299 299 300 301 303 306 306 307 306 305 305 305 307 308 306 309 310 309 309 310 312 314 317 318 317 317 317 318 318 320 321 322 322 323 322 321 321 322 322 323 324 324 326 328 329 332 336 335 334 335
324 324 326 324 326 325 322 323 323 322 320 320 319 318 317 316 315 315 315 314 314 313 311 309 309 310 308 306 305 304 303 303 303 302 301 301 297 297 299 298 298 301 305 303 304 304 304 305 304 304 306 306 306 306 310 315 316 316 314 313 314 314 315 316 317 318 320 321 322 323 323 321 321 321 322 322 323 324 325 326 330 331 334 334 335
323 327 326 326 326 325 323 321 321 321 318 317 317 315 315 314 314 313 313 311 310 311 310 309 307 306 305 305 303 302 301 300 300 301 300 299 298 297 299 299 298 297 301 303 304 304 304 304 304 304 304 305 305 306 310 314 312 310 309 309 311 311 312 313 313 315 317 319 320 321 322 322 323 320 320 320 322 323 324 324 326 329 331 333 334
323 326 326 324 324 323 323 320 319 318 316 315 315 314 314 313 313 311 310 310 310 308 308 306 306 304 304 304 303 303 302 301 300 302 300 300 299 298 297 298 299 299 301 304 304 304 304 304 304 304 304 304 305 307 308 308 307 308 308 308 308 310 311 311 311 312 313 315 317 319 320 321 321 322 323 321 320 321 322 323 324 326 327 328 330
324 323 323 322 322 321 319 317 317 316 315 313 313 313 313 311 311 309 308 306 306 307 304 305 305 303 302 303 303 303 301 302 303 302 302 302 300 297 298 299 297 298 301 302 301 303 304 304 304 304 304 305 305 306 306 307 307 307 307 306 307 308 309 311 311 311 312 313 315 316 318 319 319 321 322 322 323 321 321 320 321 323 324 326 327
324 322 321 320 319 318 317 316 315 314 314 313 312 312 311 308 308 307 306 306 306 306 305 305 305 305 305 302 304 303 302 304 303 303 301 301 299 299 298 299 299 298 300 300 302 300 303 304 304 305 305 306 306 306 307 307 307 306 306 306 306 307 307 309 310 311 312 314 314 315 316 317 318 319 320 321 322 321 322 322 321 320 322 324 325
322 322 320 319 318 316 315 314 313 313 312 312 310 310 309 308 305 306 305 306 305 305 304 304 303 303 304 303 303 303 303 302 303 303 303 302 301 300 299 296 296 298 297 299 300 300 300 302 304 304 305 306 305 304 304 305 305 305 305 305 306 306 306 306 308 310 311 312 312 314 315 315 316 318 318 319 319 319 321 321 324 320 320 321 323
322 320 319 318 315 314 313 313 312 311 310 309 308 308 307 306 304 305 304 304 304 303 303 303 304 304 304 304 303 303 303 303 303 303 303 304 302 302 300 299 295 293 296 296 297 298 300 299 301 303 303 303 303 304 304 303 303 304 304 305 305 305 305 305 305 307 309 310 311 311 312 313 313 314 316 316 316 317 319 321 322 322 319 320 320
321 320 318 316 315 314 313 311 311 310 309 307 306 307 306 305 304 303 304 304 304 302 303 303 303 303 303 303 302 302 301 303 303 303 303 303 302 301 301 299 298 294 293 292 294 295 297 299 297 300 302 302 302 303 302 302 303 303 303 303 303 304 304 303 303 304 305 307 308 309 309 310 311 311 313 313 314 316 318 319 321 323 320 319 320
319 318 316 314 313 312 311 310 310 309 308 307 306 305 305 304 304 303 303 304 303 303 303 302 303 303 303 302 302 301 301 302 302 303 303 303 301 300 300 300 299 295 294 292 292 296 296 299 299 298 301 301 301 301 302 301 303 301 302 301 302 303 303 302 302 303 303 303 303 304 306 308 308 309 310 311 312 313 315 316 318 320 323 319 320
317 316 314 312 312 310 310 308 308 307 306 306 305 305 304 303 303 302 302 303 302 302 302 302 302 302 301 300 301 300 302 302 302 302 302 301 300 299 299 300 299 298 296 294 291 295 299 296 298 300 300 300 301 301 300 301 302 302 302 302 302 303 303 303 303 304 304 303 303 303 303 303 305 306 307 308 309 310 312 314 316 318 318 318 318
315 314 312 310 310 308 307 306 305 305 304 304 304 303 303 302 302 302 302 301 300 300 301 301 300 300 300 300 299 299 300 300 301 300 300 300 300 299 299 299 298 298 297 294 292 292 297 297 298 299 299 299 300 299 300 300 301 303 302 301 302 304 302 303 303 304 304 303 302 302 300 300 302 303 305 307 309 310 311 313 314 313 311 312 318
314 312 310 309 307 307 306 305 304 304 303 303 303 303 303 301 301 301 300 299 299 299 300 299 299 299 299 299 299 299 300 300 299 299 299 298 298 298 299 297 296 297 296 294 291 291 295 298 297 297 298 299 298 299 298 299 300 301 302 302 302 303 302 303 303 303 303 303 302 301 300 300 300 301 302 303 304 306 308 308 307 307 309 312 318
312 309 308 308 307 306 305 304 303 302 302 302 302 302 301 301 301 300 300 299 299 298 298 297 298 298 299 298 298 298 299 298 299 297 297 297 296 296 296 296 295 295 296 293 291 290 290 294 295 297 297 298 295 298 297 298 298 300 299 300 301 302 301 302 302 303 303 302 302 301 300 300 300 300 300 301 301 301 302 303 304 305 307 309 313
310 309 307 307 306 305 304 303 302 302 302 301 301 301 300 300 299 300 300 299 299 298 297 296 296 297 298 298 297 298 299 298 298 297 298 296 296 295 295 295 295 295 294 294 292 290 290 291 294 294 295 295 295 296 297 297 298 298 298 299 299 300 301 302 302 303 302 302 301 301 300 300 300 300 300 301 301 301 301 302 303 304 304 305 308
307 308 307 306 306 305 303 302 301 301 300 301 301 300 300 299 299 298 299 299 298 297 297 296 296 297 296 297 297 298 298 297 297 296 297 296 295 295 295 295 294 293 294 294 293 292 290 289 292 293 294 293 294 296 296 297 297 297 298 298 299 299 300 301 301 302 302 302 301 301 300 300 300 300 300 301 301 301 301 302 303 303 304 305 306
307 306 306 305 305 304 303 300 300 300 300 300 299 300 300 300 299 300 299 298 298 297 297 297 296 297 296 296 296 298 297 296 296 295 296 296 295 295 294 294 293 293 293 293 293 293 291 290 291 293 294 294 295 296 296 295 295 296 297 297 297 298 299 301 301 301 301 302 302 302 301 300 301 301 300 300 300 301 301 302 303 303 304 304 305
307 306 305 304 303 302 301 301 301 300 300 300 300 299 299 299 300 300 299 299 298 297 297 297 296 297 296 296 297 297 296 295 295 295 296 295 294 294 294 293 293 293 293 293 293 292 292 291 291 290 293 293 293 295 296 296 294 293 294 296 297 298 298 298 299 299 301 300 301 301 301 300 301 301 301 301 301 301 302 302 303 303 304 304 305
306 305 304 303 303 301 301 302 301 302 301 301 302 301 300 299 299 298 298 298 298 298 298 297 297 297 297 296 297 297 296 295 294 294 295 295 294 293 294 294 294 293 292 292 292 291 291 290 290 291 291 293 293 292 294 295 294 294 292 292 293 296 296 296 296 298 299 299 300 301 301 301 300 300 299 300 301 301 302 303 303 304 305 305 305
304 303 302 302 302 301 301 301 301 302 300 299 299 299 300 300 299 298 298 298 297 297 298 297 297 297 297 297 297 296 296 295 294 295 294 293 293 293 293 294 293 293 292 292 292 291 291 290 289 289 290 291 292 294 294 294 292 292 293 292 290 291 292 294 295 294 296 297 297 298 300 300 300 301 301 301 302 302 304 305 305 305 306 305 305
304 303 303 301 301 300 300 301 301 300 299 298 296 296 298 299 299 297 297 297 297 296 297 297 297 297 296 296 297 296 296 294 293 293 293 292 292 291 292 293 293 292 292 291 291 290 290 289 289 290 289 289 290 291 291 290 290 289 292 292 290 291 291 291 293 295 296 296 297 297 298 299 299 300 301 302 303 304 306 307 308 307 307 306 305
304 303 302 302 301 300 300 300 301 300 299 298 293 291 292 295 299 297 297 297 297 296 296 296 296 296 296 296 297 295 294 293 293 293 292 292 292 292 292 292 292 291 290 290 289 290 289 288 288 288 287 288 289 290 290 291 291 292 290 290 288 290 290 290 291 294 297 296 295 295 296 299 298 299 300 300 302 303 304 305 309 308 307 305 305
303 302 302 300 300 300 300 300 300 299 298 295 291 289 289 290 295 298 297 296 297 296 295 295 295 295 295 296 297 296 295 293 294 293 292 291 291 291 291 292 292 291 290 289 289 289 288 287 288 288 287 287 288 290 290 290 290 290 289 289 289 289 287 286 285 290 295 296 295 294 295 300 299 297 299 300 300 301 303 305 305 306 306 306 305
303 303 301 300 300 301 301 300 300 298 296 292 290 290 289 289 290 295 298 295 297 296 295 295 294 295 295 296 296 296 296 294 294 294 292 291 291 291 291 291 291 292 292 291 290 288 288 287 287 287 287 287 288 289 289 289 288 288 289 289 289 287 286 286 286 286 292 296 295 294 293 299 301 299 299 300 300 301 302 304 304 304 304 304 304
303 301 301 301 300 300 301 300 299 299 296 290 290 290 290 289 289 292 297 296 296 295 295 295 295 294 295 295 295 295 295 293 294 293 291 291 291 291 292 292 293 292 290 290 291 292 291 288 287 287 287 287 287 288 290 290 290 287 288 288 288 287 287 287 288 290 293 297 295 295 293 297 299 298 298 300 302 302 304 304 304 303 303 304 304
302 301 301 300 300 300 300 300 299 298 296 291 290 290 290 289 290 290 298 296 297 296 295 295 295 294 294 293 294 294 294 294 294 291 289 290 290 292 293 294 293 293 292 292 291 292 291 290 289 287 289 290 288 290 291 291 289 288 287 286 287 286 287 288 291 293 296 300 297 293 294 296 298 297 296 300 303 304 305 305 303 303 303 303 303
301 301 300 300 299 300 300 300 299 296 293 289 290 289 289 289 289 290 298 297 297 296 296 295 295 294 294 293 293 293 292 292 293 288 288 288 289 291 292 292 292 293 293 293 293 292 292 292 291 290 290 291 291 291 292 292 291 291 289 287 287 288 290 292 294 296 299 299 298 295 290 295 300 295 297 301 303 304 307 305 302 303 302 302 302
302 301 300 300 299 299 299 300 299 297 293 288 289 289 289 289 288 297 297 297 296 295 296 295 294 295 294 292 292 293 291 291 289 285 286 287 288 290 290 291 291 292 293 293 292 291 292 291 292 292 292 292 291 293 294 293 292 292 291 290 290 290 289 290 291 293 295 299 300 296 294 295 299 296 298 301 303 303 304 307 302 302 302 302 301
301 300 300 299 299 299 298 299 299 298 295 290 288 288 288 288 290 297 297 296 295 295 295 295 294 294 294 292 292 292 289 290 287 284 284 286 288 289 289 290 290 290 291 292 291 290 290 290 290 290 290 290 291 291 291 291 293 291 289 287 287 287 287 287 289 291 292 295 297 296 294 293 296 295 295 298 300 302 303 307 307 301 301 301 301
300 299 299 299 300 300 299 297 298 298 296 290 288 288 288 288 289 296 296 295 295 295 294 295 295 294 293 289 290 291 289 288 285 284 284 286 287 288 289 289 288 288 289 291 291 291 291 291 291 291 291 291 291 292 292 292 292 292 288 285 286 287 286 287 286 289 292 295 296 296 292 292 295 295 295 297 298 301 305 306 306 303 300 300 300
300 300 300 300 300 300 299 296 292 297 297 292 287 288 287 288 290 296 296 293 293 294 294 293 294 294 293 292 289 288 287 286 284 284 284 285 287 287 288 288 286 286 288 289 288 289 291 292 293 293 293 294 295 295 295 293 293 293 292 289 288 286 285 286 287 288 288 292 294 295 289 291 293 295 295 295 296 301 305 305 303 305 305 305 303
Wind_Speed
6 6 6 6 6 7 7 7 7 7 7 7 7 7 6 6 6 6 5 6 5 4 6 5 5 5 5 6 5 4 4 4 4 4 5 4 7 11 12 12 11 9 7 7 8 8 6 4 6 7 8 8 9 6 6 8 10 12 13 13 14 15 15 15 14 11 9 9 9 8 12 13 15 15 13 13 17 14 12 12 13 13 13 14 15
6 6 6 6 6 7 6 7 7 7 7 7 7 7 6 6 6 7 7 7 6 5 6 5 5 4 5 6 5 5 3 4 4 3 4 4 5 9 13 12 11 11 12 13 14 14 11 8 4 5 5 7 8 6 6 5 9 11 12 14 15 14 14 14 13 9 9 7 12 17 18 17 17 14 14 15 17 16 13 11 12 13 14 14 15
7 7 6 6 6 6 6 6 6 7 7 7 7 7 6 6 7 6 6 6 6 5 5 5 5 5 4 5 5 4 4 3 3 4 4 4 4 6 10 14 12 12 12 13 13 13 13 13 12 8 6 5 6 6 4 5 11 9 9 12 12 8 8 11 12 11 10 13 15 17 18 18 17 16 15 15 15 15 13 13 12 13 14 15 15
7 6 6 6 6 6 6 6 6 6 6 7 7 6 7 7 7 6 6 5 5 5 5 5 5 4 4 3 4 5 3 3 4 4 4 3 3 4 4 8 13 12 12 13 13 13 13 13 12 12 12 11 10 8 6 4 5 7 7 8 7 6 6 12 13 15 15 15 15 14 16 17 16 17 18 16 16 15 16 15 13 13 14 15 15
5 7 6 5 6 6 6 7 7 6 6 7 7 7 7 7 7 6 6 5 5 5 5 4 4 3 4 3 2 2 3 3 3 3 4 3 3 3 3 4 5 11 10 10 11 11 12 12 12 12 12 12 11 11 9 8 7 7 7 6 6 6 8 8 10 12 14 14 14 14 14 16 16 17 18 18 16 16 14 15 15 14 14 15 15
6 6 6 5 6 6 7 7 7 7 7 7 7 7 7 9 9 7 7 7 6 6 5 5 4 3 3 3 2 3 3 3 3 3 3 4 4 4 4 4 4 4 4 10 9 10 10 9 10 11 12 12 12 12 11 10 9 9 8 8 8 5 3 11 10 12 14 13 13 14 15 17 18 18 19 19 18 15 14 13 13 14 15 15 15
6 6 6 6 6 7 7 7 7 8 7 7 7 8 8 9 9 9 8 8 8 6 6 5 4 4 3 3 3 3 3 3 4 3 3 3 3 4 3 3 4 4 4 2 8 9 8 8 7 8 9 10 11 12 11 11 11 10 10 9 8 6 3 6 8 11 12 11 10 12 14 16 17 18 19 19 18 16 15 14 15 15 15 15 16
7 7 6 6 6 7 7 7 8 8 8 8 8 9 9 9 10 10 9 10 9 8 6 5 5 5 4 3 3 4 4 4 4 5 3 4 4 3 3 4 4 4 4 3 4 5 6 7 5 4 7 8 9 10 10 11 11 10 9 9 9 7 6 4 9 10 11 10 10 11 13 14 15 18 19 18 17 16 17 18 17 16 16 17 17
6 7 6 6 6 7 7 8 8 8 8 9 9 9 10 9 10 11 10 10 10 10 8 6 4 3 3 4 5 4 4 4 5 5 4 3 4 3 3 3 3 1 2 3 3 3 4 5 5 2 5 7 7 8 9 10 10 10 10 9 8 7 6 5 9 10 10 10 11 12 14 15 16 16 18 18 18 17 18 19 20 17 16 18 17
6 6 6 6 7 7 8 8 8 8 8 8 9 9 9 9 9 10 10 10 10 11 9 7 5 4 2 3 4 4 4 4 4 3 4 5 4 5 4 3 3 3 3 3 3 3 4 3 3 2 6 7 6 6 8 9 10 11 11 11 10 7 6 6 8 10 11 10 12 13 14 15 15 16 18 18 17 19 20 20 21 20 17 19 19
7 7 6 6 7 7 7 8 7 8 8 8 8 9 9 10 10 10 9 9 9 10 10 8 6 5 6 5 5 4 2 3 4 3 3 4 4 5 5 3 4 4 4 4 3 4 4 5 5 5 4 7 6 5 6 6 7 10 11 11 11 10 7 6 7 11 12 11 12 13 14 15 16 16 16 17 18 20 21 21 22 20 19 19 20
7 7 7 6 6 7 7 7 7 7 7 8 8 8 8 9 9 10 10 9 10 10 11 8 8 6 6 5 4 6 5 5 6 4 4 4 4 5 4 5 4 4 4 4 3 4 4 4 4 5 6 6 5 5 5 5 3 8 10 10 11 11 9 8 6 9 11 11 12 13 15 16 16 16 15 15 17 19 21 22 21 19 20 21 19
7 7 6 6 6 6 7 7 6 6 6 7 7 8 8 8 8 8 10 9 8 10 12 11 9 8 6 7 5 3 4 5 4 6 7 5 3 5 4 5 4 5 4 4 4 4 5 3 5 5 6 6 7 5 4 5 1 7 8 9 10 9 10 9 9 7 9 12 12 12 14 15 15 16 16 16 16 18 19 20 19 19 21 22 21
7 7 7 7 6 6 6 6 6 6 6 7 7 7 8 8 8 8 9 10 9 11 10 12 9 10 10 9 5 7 2 4 5 9 10 7 4 6 4 5 5 6 4 5 5 5 6 5 5 6 6 7 7 7 7 7 3 7 6 7 8 8 8 10 9 8 8 8 11 12 13 15 15 15 16 16 17 18 18 18 17 18 21 22 22
7 7 6 6 5 5 5 5 6 6 7 7 7 9 9 10 10 9 9 10 9 10 9 10 11 11 9 8 7 8 3 3 7 11 11 6 6 8 6 6 7 6 5 6 5 7 7 6 7 8 7 8 8 9 8 8 7 4 6 6 6 6 8 8 9 9 8 9 9 10 12 13 15 14 15 15 15 15 15 16 16 19 21 21 21
7 7 6 5 5 6 6 6 6 6 7 8 9 9 9 9 9 9 9 10 10 10 10 10 9 10 10 9 9 8 7 7 11 11 7 7 10 8 7 8 8 6 5 7 7 7 6 6 9 8 8 8 8 8 9 9 10 10 9 7 6 5 8 9 9 9 9 9 9 9 10 12 12 12 13 14 14 14 14 14 14 16 15 16 16
6 6 6 6 6 5 6 6 6 7 7 7 8 9 10 10 10 9 10 9 10 9 9 9 9 7 8 9 8 7 8 11 12 9 7 10 9 10 7 8 7 7 7 9 9 8 7 10 9 8 10 10 9 9 9 9 9 9 8 9 4 6 8 10 10 11 10 10 9 9 10 10 10 10 11 12 12 13 13 13 14 14 15 16 16
6 6 6 6 6 6 6 7 7 6 6 7 8 8 9 10 9 8 9 9 9 9 9 8 8 7 7 6 5 7 10 10 10 9 10 8 9 9 10 9 8 8 9 10 9 8 9 8 9 11 10 9 9 9 8 9 9 8 7 7 11 10 11 12 12 12 12 11 11 9 9 10 11 12 12 11 11 12 12 13 12 12 12 15 15
5 5 6 6 6 6 7 7 8 7 7 7 8 9 8 9 8 8 8 8 9 8 9 8 7 6 8 7 7 6 9 9 9 10 12 10 8 8 9 9 10 12 11 9 9 10 7 10 12 11 10 9 8 8 8 8 8 7 9 12 15 16 16 16 16 15 14 14 13 12 11 10 11 11 11 12 13 11 10 11 11 11 11 12 13
4 6 6 7 7 7 7 7 7 8 7 8 8 8 8 8 8 9 8 7 8 8 8 8 8 7 8 8 9 8 9 10 9 9 10 12 14 11 7 9 11 10 8 10 11 8 11 11 10 10 10 9 8 9 8 8 8 8 6 18 15 16 16 16 16 17 17 17 15 13 13 12 13 13 12 12 12 12 12 10 11 12 11 11 12
5 6 7 7 7 7 7 7 7 8 7 7 7 8 9 8 8 8 8 7 7 7 7 7 8 8 9 8 9 8 9 9 9 8 9 11 11 13 15 12 9 7 8 10 9 10 11 9 9 11 9 8 9 10 9 8 7 7 9 17 16 16 17 17 17 17 17 17 18 17 15 14 14 13 14 14 14 13 13 14 12 10 11 11 11
5 5 6 7 6 7 7 7 7 7 7 7 7 7 7 7 7 7 8 8 6 7 7 7 8 7 8 8 8 8 8 8 7 9 9 9 11 12 13 16 14 11 10 9 11 11 10 8 10 10 9 9 10 9 9 7 7 8 11 18 17 18 18 18 18 17 17 18 18 19 18 18 15 15 15 15 16 16 15 14 14 13 12 12 12
4 3 6 6 6 6 6 7 6 6 7 7 7 7 6 6 7 7 8 8 7 7 7 8 8 8 9 8 8 8 8 9 9 9 9 9 10 11 11 11 12 15 12 13 12 10 8 9 9 9 10 10 10 10 7 8 8 9 17 17 21 20 19 19 19 18 18 18 18 19 19 19 19 19 17 15 17 17 17 17 15 14 14 13 13
4 4 5 5 5 5 6 7 7 7 7 7 7 7 6 6 6 7 7 7 8 8 7 8 10 8 8 7 7 7 8 8 9 8 9 9 9 11 11 11 11 10 11 11 11 9 10 9 8 10 10 9 9 9 9 9 10 15 15 17 19 22 22 20 19 19 19 18 18 18 18 19 19 19 20 19 17 16 18 18 17 15 15 17 16
5 5 5 6 5 6 6 6 6 7 7 7 7 7 6 5 7 7 7 8 8 8 7 8 8 8 8 7 7 7 8 7 8 8 8 8 9 11 10 11 12 11 10 10 8 9 9 8 10 10 10 9 9 10 10 10 10 14 18 14 18 20 22 21 20 19 18 18 17 17 18 19 18 19 20 19 20 21 19 17 19 18 17 17 18
4 5 5 5 6 6 7 7 7 7 7 6 7 7 7 6 7 7 7 7 8 7 7 8 7 8 7 7 7 6 7 7 8 8 9 9 9 10 11 10 11 11 9 9 9 9 7 9 10 10 10 10 10 10 10 10 10 15 17 14 16 17 17 19 20 19 18 17 17 17 18 17 18 18 18 19 21 20 21 21 19 18 18 18 19
5 5 5 5 6 6 6 6 6 6 7 6 6 6 7 6 7 7 6 6 7 7 6 8 8 9 9 8 7 6 7 8 8 8 8 8 9 10 11 13 12 9 10 9 9 9 11 10 9 10 10 11 11 12 13 13 14 15 16 14 12 15 16 17 18 18 20 20 19 18 17 18 19 19 19 18 17 19 20 21 23 21 18 20 20
5 4 4 5 5 6 6 7 7 7 7 7 7 6 7 6 6 7 7 6 6 8 7 7 8 8 8 9 7 7 7 8 7 7 7 8 9 9 10 11 13 14 11 10 9 9 13 12 11 11 11 12 12 12 14 15 13 17 17 12 12 12 15 16 17 21 23 24 22 20 18 18 20 19 19 18 18 19 19 20 24 22 19 20 22
4 4 5 6 6 6 6 6 6 6 7 7 7 7 6 6 6 7 7 6 6 7 7 7 7 7 8 9 8 7 8 8 8 8 8 8 9 9 9 10 10 12 13 13 11 12 12 12 13 12 13 15 14 13 13 13 14 15 13 13 13 12 13 16 20 22 22 23 23 22 20 20 18 18 18 19 19 19 19 20 21 24 23 20 21
4 4 5 6 6 6 6 6 6 6 6 6 7 7 6 6 6 7 7 6 6 5 7 7 7 7 8 8 8 7 9 9 8 9 8 9 9 9 9 9 9 11 13 15 15 12 12 13 13 14 15 16 15 14 13 13 15 17 15 15 13 12 14 18 21 21 19 18 18 20 19 16 17 19 20 21 21 21 21 21 21 22 25 23 17
5 5 5 5 5 5 5 6 5 6 6 6 6 6 7 6 6 6 7 6 6 6 7 7 6 8 9 9 9 8 9 9 9 9 8 9 9 9 10 10 10 11 12 13 15 12 12 14 14 15 16 17 15 15 14 14 14 17 15 14 15 16 19 16 15 14 13 12 12 13 15 17 19 20 21 22 22 22 21 21 21 22 23 25 16
6 6 5 6 6 5 5 5 5 6 6 6 6 7 6 6 6 6 6 7 7 7 7 7 7 8 9 10 10 9 9 9 9 9 9 9 9 9 9 9 10 11 11 12 14 16 13 13 15 15 16 16 16 16 16 14 14 19 16 16 17 17 13 12 13 11 8 9 13 10 9 16 20 20 20 20 21 21 20 19 19 19 19 22 17
6 6 6 6 6 5 6 5 6 6 6 6 6 6 6 6 6 6 7 8 8 7 7 9 9 9 10 10 10 10 10 10 9 9 9 10 10 10 9 10 10 11 12 13 14 16 14 12 14 14 15 15 15 15 16 15 16 16 16 16 16 16 15 11 11 13 11 6 6 9 13 12 15 18 19 20 20 19 18 17 16 16 18 19 15
6 6 7 5 5 5 5 6 6 6 6 7 6 6 6 6 6 5 7 8 8 8 8 9 9 8 9 9 10 10 9 10 10 11 10 10 11 11 11 11 11 12 12 13 14 14 17 15 14 15 15 15 15 15 16 17 17 17 18 16 15 15 14 15 14 11 8 10 8 8 11 14 14 16 19 20 20 17 16 15 14 15 17 17 17
6 6 6 6 5 5 5 5 6 6 6 6 6 6 6 7 7 7 7 7 8 8 9 9 10 9 9 9 10 9 8 10 10 10 10 11 11 12 13 12 13 13 13 13 13 15 17 16 15 16 15 15 15 16 17 15 17 17 18 17 16 14 14 15 15 15 15 9 10 10 12 14 17 17 17 18 18 18 17 16 15 15 15 16 15
7 6 6 6 5 5 5 6 6 6 6 6 6 6 7 7 7 7 7 7 7 8 8 8 9 9 9 9 9 9 9 10 10 10 9 11 11 11 13 13 13 13 13 13 13 13 15 17 17 16 15 15 15 16 15 16 16 16 15 16 17 16 16 15 15 15 18 21 15 13 13 15 15 16 18 16 17 18 18 16 14 14 15 15 15
7 6 6 5 4 5 5 6 6 7 6 6 6 6 6 6 6 6 7 7 7 7 7 7 8 8 8 8 9 9 9 10 10 10 10 13 12 12 13 13 13 13 12 13 14 14 15 16 17 15 14 14 14 15 16 15 16 16 16 17 16 16 17 16 16 15 20 21 21 17 16 16 14 14 16 18 17 17 17 16 15 13 14 14 15
7 6 5 4 4 6 6 6 6 6 6 6 6 6 6 6 6 6 6 6 6 6 7 7 8 7 7 8 8 8 9 10 10 10 11 13 12 12 14 13 13 13 14 15 14 15 15 15 16 16 14 14 15 14 15 15 16 16 16 16 16 16 16 17 16 14 14 14 14 15 15 14 14 12 12 14 14 15 17 17 16 14 13 14 15
7 6 6 5 5 6 6 6 6 6 6 5 5 5 6 6 6 6 6 6 6 5 6 7 7 7 7 7 7 8 9 10 11 11 12 12 11 13 14 14 14 15 15 14 15 16 15 16 15 15 15 14 14 15 15 15 15 14 15 16 16 14 15 16 17 15 14 17 20 22 20 18 18 18 19 19 18 17 17 18 19 15 13 14 14
7 6 5 6 5 6 6 6 6 6 6 7 7 7 6 5 5 5 5 6 6 6 6 6 6 6 7 7 7 8 9 10 11 11 12 12 12 12 12 13 15 16 15 15 15 15 15 16 15 15 13 14 14 13 14 14 14 13 12 15 18 19 17 16 15 16 16 16 17 16 17 17 16 17 20 21 22 20 18 19 19 18 15 14 14
6 6 5 6 6 6 6 6 6 6 6 6 6 7 7 7 5 5 5 6 6 6 6 7 6 7 7 7 6 8 9 10 14 13 13 13 12 13 13 14 15 15 14 15 14 15 15 15 16 14 15 14 14 15 15 14 14 15 15 15 17 16 17 18 18 15 15 17 16 16 15 15 14 12 12 12 11 13 14 17 16 16 15 14 14
6 6 6 6 6 6 6 6 6 5 5 5 8 11 10 8 7 5 5 5 6 6 7 7 7 7 7 7 6 8 8 10 13 13 14 15 16 13 13 14 15 15 15 15 15 15 15 16 15 16 16 15 15 15 16 16 15 16 16 16 16 17 17 18 19 15 14 15 15 15 14 14 12 12 11 11 11 11 11 11 10 10 12 15 15
7 6 5 6 5 5 6 6 6 5 5 6 8 8 9 11 9 5 5 5 5 6 6 7 7 7 7 8 7 7 7 11 12 13 14 17 17 17 17 17 15 13 14 15 15 16 16 16 16 16 16 17 16 16 16 16 15 16 16 16 17 17 16 16 19 18 13 12 12 12 15 12 11 12 11 11 11 11 10 11 5 4 7 10 15
6 6 6 6 5 5 5 5 5 5 6 7 6 7 7 10 10 8 4 5 4 5 6 7 6 7 8 7 7 7 7 10 11 11 15 17 17 17 17 15 15 14 10 11 14 15 16 16 17 16 16 16 16 17 16 15 16 17 17 16 16 17 17 17 17 17 15 13 12 12 15 11 9 11 11 10 11 11 11 9 1 6 8 8 13
6 6 6 6 5 5 5 5 5 6 6 8 6 7 7 9 10 11 4 5 4 5 5 6 6 7 7 7 8 7 7 12 9 12 14 15 17 18 17 14 12 14 14 12 12 13 15 15 15 17 16 16 17 17 17 17 15 18 18 17 17 18 17 19 17 16 17 14 13 11 12 10 9 10 11 10 9 10 10 10 10 11 10 12 14
6 6 6 6 5 4 4 4 5 6 6 7 7 8 8 10 9 10 4 4 4 4 5 5 5 6 7 8 8 8 9 10 9 12 14 14 15 15 13 12 12 13 13 13 14 13 14 13 14 16 16 16 16 17 19 18 17 16 15 17 18 20 19 19 21 19 18 14 10 10 10 10 8 8 11 10 7 8 9 8 7 10 12 11 14
6 6 6 5 4 4 3 3 4 5 5 6 6 8 9 11 11 12 4 3 3 3 3 4 5 5 6 7 8 8 9 10 9 14 14 15 15 13 13 13 13 13 13 13 13 13 13 12 14 15 16 16 16 17 17 16 17 14 13 16 18 17 16 18 18 17 13 10 9 8 10 10 5 9 10 6 6 7 7 4 5 9 7 8 12
5 5 5 5 5 4 3 3 3 5 6 6 6 7 9 11 15 8 3 3 3 4 3 4 4 4 5 7 8 8 10 10 14 19 17 15 15 14 14 14 13 13 12 12 15 14 15 14 14 16 15 17 20 18 16 15 13 10 13 14 16 15 17 15 14 12 10 6 6 8 9 9 7 7 6 7 7 8 7 6 9 9 10 9 8
6 5 5 4 4 4 3 3 3 4 5 6 5 8 10 12 11 5 4 3 4 4 4 4 4 4 4 6 7 8 10 10 15 18 18 19 13 13 13 14 13 13 13 13 15 17 15 14 16 20 21 22 21 19 18 17 7 8 10 14 15 16 15 14 14 13 10 8 9 9 9 10 6 7 9 8 8 7 6 5 6 8 10 8 9
6 5 5 4 4 3 3 3 2 2 4 7 6 8 10 11 13 7 5 4 4 5 5 4 4 4 5 1 4 7 10 10 16 18 18 17 13 13 13 13 14 14 14 13 13 14 16 16 16 14 16 17 15 14 11 8 6 6 7 12 15 13 14 12 14 13 13 5 7 11 10 8 7 7 7 8 7 3 3 5 6 8 12 9 9
6 5 4 4 4 4 4 4 2 0 4 7 7 7 9 11 11 7 5 5 6 6 6 5 5 5 5 5 10 9 9 13 16 17 18 16 12 12 12 12 13 14 14 16 15 16 16 16 15 15 15 16 16 14 15 15 14 13 6 8 10 11 11 11 12 13 11 8 10 12 9 8 7 5 6 5 1 2 4 4 6 6 7 6 7
Wind_Direction
24 24 24 20 17 15 11 13 10 8 2 7 3 354 352 357 347 344 351 336 336 10 335 342 340 347 338 343 360 355 8 351 10 13 42 44 71 57 52 54 55 54 44 10 1 353 339 294 268 267 274 280 279 285 267 247 258 261 262 264 263 261 256 254 256 262 258 237 235 257 249 237 233 239 232 243 266 255 221 211 216 222 226 227 227
21 11 15 15 15 14 12 14 15 9 3 4 0 352 350 351 347 343 343 333 334 348 326 334 331 337 359 332 356 345 1 352 14 16 53 75 83 80 61 57 52 45 39 38 40 41 37 25 345 320 299 296 296 283 276 278 275 252 251 256 254 255 264 273 276 272 280 248 207 222 232 229 228 231 229 230 241 246 240 213 212 215 222 227 228
14 10 11 13 18 16 18 12 16 13 6 2 359 351 352 349 351 343 344 331 328 326 324 323 326 323 359 336 341 344 1 1 4 31 48 60 78 92 85 65 56 50 43 41 38 36 35 33 33 26 3 350 338 328 287 238 237 250 258 255 256 246 266 278 288 288 260 245 215 215 223 226 226 226 229 231 234 238 241 234 216 212 219 228 228
17 12 14 22 19 16 21 17 16 13 10 3 3 358 2 359 0 349 352 330 329 336 323 311 321 327 323 2 343 333 356 14 3 36 47 50 70 78 86 100 75 55 49 45 40 37 31 30 28 25 24 22 19 16 357 311 288 272 257 271 271 256 196 254 237 245 247 248 237 222 227 232 231 228 230 227 230 233 236 234 226 221 219 225 229
24 13 11 27 25 18 20 19 18 14 13 3 12 9 13 8 9 2 0 349 348 349 333 328 317 339 323 3 331 344 0 1 31 16 32 56 47 63 73 65 102 105 77 55 52 39 36 32 28 27 23 18 17 13 9 4 348 331 312 298 292 299 169 211 227 226 236 238 246 246 238 237 237 234 233 231 228 229 230 232 229 225 222 218 223
17 23 8 24 29 28 23 23 21 13 26 14 26 23 24 20 13 12 7 0 1 4 350 358 343 7 2 349 8 356 347 33 5 34 36 27 35 33 33 44 29 38 102 108 73 51 39 34 32 28 23 20 16 12 10 5 355 347 338 323 314 311 157 190 221 227 229 231 241 245 241 239 239 235 234 235 233 230 232 237 233 227 222 219 218
31 26 19 23 31 37 27 28 24 27 30 27 26 31 26 21 18 16 9 12 9 10 9 8 3 34 13 9 15 6 0 5 350 359 23 40 22 34 29 33 27 24 358 21 118 75 40 30 31 31 29 22 13 11 10 5 358 352 346 333 324 314 309 190 209 215 219 228 233 237 241 241 239 238 237 235 235 234 236 237 238 231 224 220 218
37 29 27 31 38 40 38 34 34 36 29 28 27 30 24 21 19 16 10 13 16 12 15 17 16 22 23 22 29 358 2 0 0 340 24 349 25 28 21 33 24 32 2 6 348 66 45 25 18 43 34 26 18 16 9 5 360 355 347 338 328 320 305 223 211 221 227 223 224 234 238 240 239 241 242 240 239 232 231 230 232 230 226 222 221
36 37 30 39 45 49 46 42 39 37 36 32 31 26 23 18 18 15 12 11 16 16 18 13 10 24 13 12 1 359 358 354 355 345 347 10 356 13 35 19 58 23 37 5 6 348 76 21 360 64 67 29 16 16 11 10 8 1 357 351 339 325 309 265 217 224 228 216 216 224 231 234 234 237 242 240 237 236 233 234 233 231 230 228 223
33 37 37 46 52 54 50 41 41 37 36 39 37 28 23 18 17 17 13 14 15 13 13 10 3 346 344 358 346 332 337 339 335 321 333 348 352 344 345 11 352 22 7 357 7 4 346 5 295 240 107 45 20 5 7 7 10 8 5 2 357 341 316 292 243 227 232 226 219 219 222 227 231 232 235 238 236 234 234 233 236 234 232 235 233
42 41 41 53 59 54 44 41 46 42 35 33 34 30 20 14 13 14 13 21 17 18 4 2 5 352 342 336 328 301 308 330 314 321 345 338 345 325 319 2 337 0 1 336 353 360 341 349 335 332 2 40 10 10 4 2 12 13 7 2 359 356 337 296 267 243 239 236 228 223 221 223 227 231 234 234 234 235 237 237 238 238 236 232 233
46 52 53 50 55 50 46 42 45 41 35 30 23 23 14 11 8 6 9 9 17 16 9 356 1 359 350 303 308 310 308 320 304 325 340 317 338 325 323 330 333 341 334 347 334 352 328 340 331 333 332 345 343 350 348 344 0 18 2 358 355 354 351 340 299 259 250 246 240 235 230 223 226 230 232 235 237 236 236 240 243 242 242 240 235
53 54 54 58 53 48 43 36 31 33 29 29 21 15 13 11 4 9 6 6 11 5 10 347 2 354 343 346 297 308 289 287 307 313 334 317 317 313 317 310 318 325 330 324 314 329 308 334 330 332 335 333 325 328 314 298 172 36 0 345 346 346 348 344 338 315 263 250 250 249 251 243 225 226 230 230 233 239 239 239 239 238 240 243 243
64 60 50 50 48 46 41 36 25 26 20 20 15 10 8 6 1 1 1 360 4 7 9 349 3 356 341 341 327 335 290 283 318 342 328 318 321 294 304 311 318 315 317 310 304 327 316 327 340 327 325 324 320 320 322 315 279 54 335 317 329 333 336 337 339 328 317 289 263 256 251 256 249 232 231 232 233 235 238 236 235 237 238 239 239
75 68 69 51 40 34 30 25 19 12 10 11 5 6 6 4 4 359 355 358 354 4 5 8 349 348 339 334 347 332 324 287 343 333 322 323 320 314 320 308 324 322 332 312 332 330 321 331 335 323 322 318 313 313 313 304 308 7 280 282 302 320 322 323 324 326 321 310 293 268 263 258 255 248 241 237 234 238 241 241 235 236 240 241 243
57 65 62 47 27 19 19 11 8 6 3 9 6 2 360 358 3 354 353 348 353 351 355 8 355 353 351 347 339 324 323 347 333 327 313 341 324 326 327 329 314 322 316 322 333 317 312 332 317 313 315 310 306 304 301 303 302 279 262 279 280 304 317 310 308 310 312 314 302 287 270 268 269 263 255 247 241 240 239 241 240 240 243 249 247
59 51 46 41 23 10 5 1 8 357 357 351 355 356 358 356 7 353 354 354 345 343 355 13 357 20 346 343 346 337 346 329 330 310 353 324 330 325 325 310 320 322 318 321 320 309 341 323 315 316 311 308 304 301 296 298 302 303 295 267 241 326 317 308 304 299 296 299 304 291 281 280 277 274 265 255 250 244 241 240 242 236 237 245 244
50 38 25 12 11 359 360 348 356 353 359 351 354 354 353 4 9 2 357 9 350 347 358 12 360 24 6 360 346 334 324 327 319 323 319 319 322 319 319 318 325 323 320 320 317 335 325 319 328 316 310 312 306 300 307 304 297 296 305 317 341 323 318 313 304 297 292 288 288 295 285 280 283 283 276 272 261 250 247 247 244 242 235 233 241
25 21 16 7 3 354 358 353 354 357 359 7 6 8 7 19 10 14 8 7 4 358 1 4 352 12 2 352 339 327 323 325 326 316 318 321 317 318 318 324 330 323 318 320 336 325 323 332 315 313 322 310 309 311 302 301 306 302 304 358 7 2 350 336 321 307 294 286 286 283 283 280 284 285 285 284 277 266 247 244 244 241 235 234 238
28 17 4 4 359 358 2 5 1 8 11 20 21 27 22 30 25 19 17 18 15 8 359 5 353 357 350 342 334 325 327 320 317 321 310 315 318 319 318 330 328 318 323 339 325 322 330 317 314 324 317 315 318 314 315 309 307 316 359 17 1 354 347 339 332 328 324 307 282 280 278 278 276 279 287 287 288 285 276 252 238 240 236 232 233
21 8 2 8 5 8 11 16 19 18 19 35 38 37 38 34 28 26 20 21 22 13 2 359 347 353 341 340 334 332 330 329 330 326 323 316 313 321 323 327 322 323 345 322 322 328 316 312 322 313 310 327 321 314 310 308 302 294 19 6 355 339 338 333 330 327 324 322 315 284 272 275 270 278 282 281 282 286 284 281 265 230 237 240 234
15 6 9 18 19 15 21 34 36 32 35 38 38 41 36 35 38 33 23 16 16 11 7 359 347 349 345 341 336 341 340 340 342 341 324 320 317 319 323 324 326 331 324 322 329 319 314 326 320 315 331 325 317 311 305 309 335 324 3 353 341 332 325 325 323 320 321 321 318 320 299 267 270 275 271 277 283 280 279 280 277 270 246 238 236
4 18 22 29 35 36 35 42 45 43 39 36 32 29 30 31 25 25 28 19 12 6 8 8 354 353 350 351 346 352 349 340 343 341 333 326 324 316 317 321 324 319 326 330 326 320 328 325 317 330 330 323 322 313 323 338 321 341 358 343 331 324 319 318 316 314 316 315 319 316 314 321 301 274 264 272 274 274 279 274 272 275 269 248 235
10 33 38 40 45 43 47 48 45 36 37 38 28 26 23 22 24 19 18 17 16 9 13 9 6 357 356 351 349 350 348 345 342 335 334 328 320 316 318 327 320 317 318 317 313 321 327 323 330 328 326 325 318 328 335 333 324 341 346 335 324 319 317 314 312 312 311 310 311 311 317 314 311 313 309 284 262 270 274 273 274 271 271 272 255
17 29 57 45 48 48 45 44 47 46 39 31 31 28 18 27 21 20 22 17 16 15 16 13 11 3 354 346 348 353 350 348 338 335 332 327 325 321 325 324 315 315 314 318 324 332 321 333 334 328 329 330 334 337 334 322 323 334 331 318 319 314 311 313 313 311 308 308 305 310 313 310 312 315 309 310 306 274 259 271 277 273 275 272 277
33 51 42 51 58 62 57 54 49 45 40 37 33 27 18 16 26 22 22 23 17 13 19 12 11 8 359 349 350 357 354 346 342 340 338 337 333 329 323 318 316 314 318 322 331 326 333 338 331 332 334 341 336 329 320 316 313 318 315 315 309 304 310 311 314 314 319 319 317 314 309 309 312 310 311 313 307 311 314 290 262 274 276 279 278
61 70 72 73 68 62 59 59 52 45 39 33 28 33 23 19 28 25 27 24 21 13 15 12 8 6 5 357 345 4 356 350 342 346 336 340 330 331 328 325 323 322 324 327 329 329 336 324 331 329 334 336 334 328 327 328 314 310 327 315 307 310 312 315 311 323 321 314 311 307 307 313 313 309 310 309 313 319 312 312 300 262 272 278 279
71 79 70 67 70 71 68 58 48 44 38 32 27 30 25 28 32 25 25 23 20 19 14 11 11 4 4 360 353 0 356 349 342 343 338 336 332 333 331 327 328 325 327 323 328 328 331 324 326 329 332 334 330 326 327 319 317 330 320 313 311 310 310 307 325 326 317 312 308 305 306 309 308 309 309 309 314 314 314 313 309 282 260 272 277
97 90 84 73 68 61 59 55 48 43 40 31 31 32 33 33 32 29 23 20 19 20 14 12 7 5 4 3 358 354 356 347 346 344 343 339 337 335 332 330 329 319 322 322 323 325 322 328 322 326 332 329 324 327 324 321 319 322 317 313 310 305 306 320 322 314 307 307 307 306 305 302 303 308 309 311 310 309 310 310 309 303 267 264 270
97 96 94 88 81 71 65 60 51 43 37 34 32 31 35 38 33 32 25 15 19 22 16 13 9 4 3 3 1 359 357 349 352 345 345 343 340 336 330 329 327 322 321 317 315 318 320 322 319 319 324 324 324 324 318 312 320 321 317 311 306 305 320 314 301 294 292 294 298 304 310 311 311 308 307 307 303 303 305 305 306 303 301 270 269
107 104 97 89 81 74 63 57 52 48 42 38 38 40 34 36 30 28 24 18 19 17 21 12 7 3 3 3 4 1 356 349 351 348 346 344 341 336 334 330 328 324 321 315 309 314 324 315 316 321 322 323 322 318 319 322 320 317 309 307 309 313 307 292 277 274 285 287 292 301 312 312 311 308 308 303 301 299 299 302 303 304 305 301 276
100 95 90 82 75 68 64 60 57 48 45 41 38 42 41 37 29 28 22 19 22 19 15 15 11 5 3 2 6 0 355 347 351 346 345 344 342 336 333 331 327 327 325 318 311 308 318 316 317 319 323 322 318 317 320 318 319 317 318 317 314 307 302 308 306 295 260 272 291 296 308 313 307 307 306 304 302 299 300 300 303 306 306 301 275
103 98 91 83 77 73 70 60 54 55 50 47 41 39 42 39 34 25 23 21 21 21 11 13 15 7 4 358 2 1 356 348 349 342 346 343 342 335 332 332 328 331 328 322 314 311 312 317 316 319 321 321 319 322 319 318 317 319 318 314 315 313 309 304 304 301 295 277 273 294 300 293 294 297 299 299 296 297 300 303 302 298 298 296 277
104 99 94 87 80 73 66 66 63 58 56 52 44 39 33 35 37 28 24 21 18 18 14 11 11 10 1 359 359 359 355 347 347 343 347 344 341 335 336 334 333 330 328 322 318 313 312 317 319 319 318 326 319 320 317 317 318 317 315 314 314 315 313 313 308 300 293 298 288 290 288 291 291 290 292 291 289 287 288 291 293 292 294 292 282
102 96 93 90 83 81 79 71 67 63 59 54 46 39 35 30 30 32 25 21 18 15 13 12 8 4 2 359 0 354 349 348 348 345 343 344 339 337 337 335 332 327 326 325 319 315 314 313 315 317 322 322 319 318 317 315 314 313 312 312 315 313 312 312 310 311 304 256 261 272 272 275 278 281 281 281 281 280 281 283 285 288 290 288 279
106 100 96 97 98 90 82 76 69 65 59 55 50 40 32 27 27 24 23 22 19 16 12 9 5 2 0 355 355 347 348 347 345 341 344 344 341 340 337 335 330 328 325 323 319 314 311 310 314 319 320 320 316 315 313 314 313 312 312 313 312 310 310 309 311 309 309 316 298 265 263 259 258 268 276 273 272 275 275 273 275 280 284 282 272
109 110 104 98 98 88 78 74 71 63 56 47 43 39 38 30 26 22 18 19 14 14 12 6 3 359 354 352 348 345 350 346 342 344 345 343 342 340 336 333 329 327 324 320 316 312 310 309 311 314 313 310 311 312 317 317 315 312 311 310 309 309 307 306 307 303 306 307 300 285 258 249 251 254 265 269 267 267 268 268 268 271 275 276 268
109 101 98 91 82 82 78 74 69 65 60 49 38 32 30 27 27 22 17 11 9 8 5 2 0 357 348 348 347 346 354 349 343 341 343 343 341 337 335 332 330 327 324 321 319 317 313 308 310 310 310 312 313 316 318 317 316 314 312 309 307 305 307 308 305 306 303 296 299 298 292 272 249 244 263 275 271 263 263 265 264 260 263 269 266
111 107 104 101 83 79 78 73 68 60 50 38 31 25 26 24 20 17 13 6 5 5 357 357 357 351 346 347 344 347 355 353 345 342 342 340 338 331 334 333 330 328 325 323 322 318 314 311 309 308 310 310 311 312 317 318 311 311 310 311 309 309 308 307 304 303 299 295 288 286 284 277 278 281 274 268 266 263 262 263 259 250 247 255 258
107 106 104 97 92 83 79 73 67 60 51 40 24 11 11 21 12 9 6 6 359 1 357 354 353 348 346 346 343 354 355 350 345 338 341 340 333 329 332 332 331 329 327 326 324 320 318 315 312 311 308 310 309 310 315 316 314 309 310 312 310 311 309 304 300 300 296 289 287 285 282 271 262 258 247 245 247 248 252 255 249 241 239 246 249
105 107 104 96 93 91 86 80 75 64 55 42 29 7 360 358 3 2 1 3 355 358 353 356 353 350 350 343 343 354 344 341 337 332 333 333 331 329 328 330 330 328 327 325 324 323 321 318 315 313 311 308 308 313 316 319 316 311 313 312 304 304 306 304 300 293 287 286 284 280 280 279 277 280 283 282 274 259 243 240 252 234 221 227 232
109 103 97 93 94 93 89 80 74 68 61 56 29 17 3 349 335 358 354 359 356 355 354 353 351 351 349 343 340 347 331 344 335 331 330 331 327 322 320 327 326 325 325 323 322 324 322 317 315 314 310 308 310 310 312 313 312 311 310 310 306 307 308 303 300 294 294 289 286 284 279 269 271 275 272 273 269 261 263 252 250 249 217 209 223
111 110 103 98 92 85 85 83 79 74 63 51 30 18 3 347 334 339 352 354 356 353 357 352 347 348 347 344 336 340 340 351 336 332 337 331 324 320 315 318 319 319 322 320 318 320 320 317 313 310 307 306 306 309 310 310 311 313 311 310 310 310 309 308 304 302 291 288 290 292 280 266 267 267 266 268 269 265 261 256 253 260 273 204 210
113 107 103 99 97 93 86 88 85 80 74 48 16 15 359 343 341 326 336 356 350 359 356 347 348 347 344 341 340 341 349 351 327 338 338 330 325 320 314 310 310 302 291 308 315 318 321 318 314 310 309 307 308 310 308 310 313 312 310 309 310 311 308 303 297 292 295 295 285 277 276 271 270 267 266 263 266 266 262 276 357 283 277 246 214
119 112 106 105 98 93 92 92 89 83 80 47 17 6 354 342 337 321 339 357 343 358 347 348 345 348 343 342 340 342 348 339 335 347 336 330 326 321 315 312 306 316 322 306 286 309 320 314 310 309 310 310 308 306 307 308 309 308 311 312 313 309 305 299 295 293 293 291 287 278 279 277 271 263 258 259 260 262 257 232 222 232 242 231 212
116 114 112 104 101 94 93 98 90 79 65 49 13 3 354 340 328 319 317 342 326 337 344 345 341 347 345 347 341 341 348 339 355 350 336 330 327 323 326 328 325 321 316 308 307 315 318 315 313 311 311 313 310 309 310 311 309 309 313 312 312 310 307 301 296 290 285 288 276 279 279 278 273 278 268 259 261 263 260 266 268 240 226 208 200
126 123 120 110 98 104 106 98 98 83 68 35 15 359 353 337 331 303 291 314 321 339 342 347 334 351 349 351 343 344 347 341 18 358 338 331 324 320 323 327 325 324 318 318 321 319 316 312 313 312 312 311 311 311 312 312 311 312 314 308 306 299 291 295 291 279 266 257 237 255 275 277 291 264 253 270 275 264 262 231 192 212 185 200 187
118 113 110 111 116 116 110 111 113 99 86 51 11 3 348 346 320 290 331 300 341 335 344 348 334 351 359 357 349 348 349 338 11 354 339 329 318 320 325 325 325 322 318 318 312 306 306 304 310 313 309 299 291 290 289 293 305 317 311 307 307 314 316 311 315 317 305 303 285 282 267 271 258 275 298 293 281 264 253 240 166 181 157 176 176
128 124 119 120 120 115 115 111 111 111 96 64 21 7 350 347 324 326 319 324 351 344 343 345 337 352 7 359 352 350 346 346 358 343 337 331 318 324 325 324 322 321 323 323 317 311 304 294 284 279 276 276 279 274 266 268 277 324 316 320 325 327 322 325 328 332 335 352 15 1 329 302 334 329 301 285 269 254 227 184 152 143 131 148 164
128 126 133 128 128 116 107 97 74 109 98 74 31 14 352 349 330 310 330 346 348 352 345 351 343 337 25 79 6 351 347 346 346 335 337 330 325 326 327 325 324 325 324 326 322 317 315 312 307 302 293 283 281 290 286 302 308 343 333 324 319 319 320 323 327 334 327 347 13 4 321 297 293 276 281 276 252 269 211 149 139 122 118 135 143
130 140 143 137 130 124 106 100 90 42 105 98 59 14 358 347 340 322 338 356 349 355 342 348 345 350 357 36 85 34 15 349 336 335 333 333 325 324 324 326 326 323 325 326 319 318 324 333 333 333 332 338 340 337 333 333 331 335 328 303 308 318 314 316 323 327 331 337 335 334 311 296 301 307 293 299 71 17 359 127 121 128 127 129 136